Regional Weather Roundup
Issued by NWS Sterling, VA

Home | Current Version | Previous Version | Graphics & Text | Print | Product List | Glossary On
Versions: 1 2 3 4 5 6 7 8 9 10 11 12 13 14 15 16 17 18 19 20 21 22 23 24 25 26 27 28 29 30 31 32 33 34 35 36 37 38 39 40 41 42 43 44 45 46 47 48 49 50
000
ASUS41 KLWX 231810
RWRLWX

REGIONAL WEATHER ROUNDUP
NATIONAL WEATHER SERVICE BALTIMORE MD/WASHINGTON DC
200 PM EDT TUE SEP 23 2014

Note: "FAIR" indicates few or no clouds below 12,000 feet
with no significant weather and/or obstructions to visibility.
 TC=TEMPERATURE CELSIUS

 * =Non NWS site. Station does not report precipitation (e.g. rain,
    snow, etc.), thunder, or fog.

DCZ001-MDZ009-015-VAZ040>042-051-053>054-231900-
WASHINGTON METRO

CITY           SKY/WX    TMP DP  RH WIND       PRES   REMARKS
WASHINGTON NAT CLOUDY    70  42  36 E5        30.34F
DULLES         PTSUNNY   67  40  37 N6        30.34F
ANDREWS AFB    SUNNY     67  43  41 VRB2      30.33F
QUANTICO       PTSUNNY   66  45  46 E6        30.35F
COLLEGE PARK*  MOSUNNY   68  43  40 CALM      30.34F
LEESBURG*      SUNNY     68  45  42 NE3       30.35F
GAITHERSBURG*  SUNNY     66  45  45 NE3       30.38F

$$

MDZ006>007-011-014-231900-
BALTIMORE METRO

CITY           SKY/WX    TMP DP  RH WIND       PRES   REMARKS
BWI AIRPORT    PTSUNNY   70  41  34 VRB6      30.33F
MD SCIENCE CTR   N/A     68  41  37 MISG      30.34F
MARTIN STATE   MOSUNNY   70  46  43 W8        30.35F
ANNAPOLIS      MOSUNNY   65  45  48 N8        30.34F
FORT MEADE*    SUNNY     68  39  34 CALM      30.36F

$$

MDZ012-015-019>023-231900-
MARYLAND EASTERN SHORE

CITY           SKY/WX    TMP DP  RH WIND       PRES   REMARKS
OCEAN CITY     CLOUDY    64  45  49 VRB5      30.34S
SALISBURY      CLOUDY    66  46  48 NW6       30.34F
BAY BRIDGE AP*   N/A     63  45  51 NW6       30.35F
CAMBRIDGE*     PTSUNNY   64  43  45 NE5       30.33F
EASTON*        PTSUNNY   66  46  48 NE6       30.37F

$$

MDZ017>025-231900-
SOUTHERN MARYLAND

CITY           SKY/WX    TMP DP  RH WIND       PRES   REMARKS
PATUXENT RIVER CLOUDY    64  42  44 VRB7      30.34F
ST INIGOES     CLOUDY    64  42  44 VRB5      30.34F
LEONARDTOWN*   CLOUDY    61  43  51 NE6       30.36F

$$

MDZ003>005-231900-
NORTH CENTRAL MARYLAND

CITY           SKY/WX    TMP DP  RH WIND       PRES   REMARKS
FREDERICK*     NOT AVBL
HAGERSTOWN APT SUNNY     65  40  39 VRB5      30.35F
WESTMINSTER*   SUNNY     68  41  37 CALM      30.35F

$$

MDZ501>502-231900-
WESTERN MARYLAND

CITY           SKY/WX    TMP DP  RH WIND       PRES   REMARKS
OAKLAND*       SUNNY     61  30  31 E3        30.36F
CUMBERLAND*    SUNNY     72  37  28 CALM      30.38F

$$

VAZ025>031-231900-
SHENANDOAH VALLEY

CITY           SKY/WX    TMP DP  RH WIND       PRES   REMARKS
WINCHESTER*    SUNNY     68  36  30 NE5       30.35F
STAUNTON*      MOSUNNY   65  39  38 E5        30.36F

$$

WVZ021-048>050-054>055-231900-
EASTERN WEST VIRGINIA PANHANDLE

CITY           SKY/WX    TMP DP  RH WIND       PRES   REMARKS
MARTINSBURG    SUNNY     69  38  32 VRB3      30.35F
PETERSBURG*    SUNNY     67  34  30 SE3       30.36F

$$

VAZ036>039-050-231900-
CENTRAL FOOTHILLS

CITY           SKY/WX    TMP DP  RH WIND       PRES   REMARKS
CHARLOTTESVILL CLOUDY    63  43  48 CALM      30.35F
ORANGE*        PTSUNNY   68  41  37 NE5       30.36F

$$

VAZ055>057-231900-
NORTH AND CENTRAL PIEDMONT

CITY           SKY/WX    TMP DP  RH WIND       PRES   REMARKS
FREDERICKSBRG* PTSUNNY   69  45  41 N6        30.33F
STAFFORD*      PTSUNNY   67  43  42 CALM      30.38F

$$

NCZ024-NYZ072-PAZ021-071-VAZ022-071-231900-
OTHER REGIONAL OBSERVATIONS

CITY           SKY/WX    TMP DP  RH WIND       PRES   REMARKS
NEW YORK CITY  SUNNY     69  41  36 VRB3      30.34F
PHILADELPHIA   PTSUNNY   69  42  37 VRB3      30.34F
PITTSBURGH     MOSUNNY   65  43  44 E7        30.37F
ROANOKE        CLOUDY    61  48  62 NE3       30.36F
RICHMOND       CLOUDY    66  46  48 NE9       30.34F
RALEIGH        CLOUDY    62  50  64 N7        30.33S

$$

ANZ530>537-231900-
MARINE OBSERVATIONS

STATION/POSITION TIME  TEMP    WIND        PRES
                       AIR SEA DIR/SP/G
                 (UTC) (F)     (DEG/KT/KT) (MB)
THOMAS PT LIGHT  1800   61 72   80/  4/  5 1028.6F
BALT KEY BRIDGE  1800   62     150/  6/  8 1027.4F
COVE POINT       1800   61     360/  6/  7 1027.5F
LEWISETTA        1800   62 68   30/  3/  6 1027.2F
SOLOMONS ISLAND  1800      74                N/A
PINEY POINT      1800           90/  6/  8   N/A

$$



USA.gov is the U.S. government's official web portal to all federal, state and local government web resources and services.